Weather History for KROX - August, 2013

Change the Weather History Date:

Tuesday, August 27, 2013

  Actual Average Record
Temperature  
Mean Temperature 76 °F -  
Max Temperature 89 °F 75 °F 90 °F (1972)
Min Temperature 62 °F 47 °F 29 °F (1982)
Cooling Degree Days 10    
Growing Degree Days 26 (Base 50)    
Moisture  
Dew Point 65 °F    
Average Humidity 71    
Maximum Humidity 88    
Minimum Humidity 40    
Precipitation  
Precipitation 0.00 in - - ()
Sea Level Pressure  
Sea Level Pressure 29.89 in    
Wind  
Wind Speed 1 mph (SSE)    
Max Wind Speed 5 mph    
Max Gust Speed -    
Visibility 8 miles    
Events      
Averages and records for this station are not official NWS values.
T = Trace of Precipitation, MM = Missing Value Source: NWS Daily Summary

Daily Weather History Graph

Daily Weather History Graph

Search for Another Location

Airport or City:

Trip Planner

Search our weather history database for the weather conditions in past years. The results will help you decide how hot, cold, wet, or windy it might be!

Date:

Astronomy

Aug. 27, 2013 Rise Set
Actual Time 6:32 AM CDT 8:14 PM CDT
Civil Twilight 5:59 AM CDT 8:47 PM CDT
Nautical Twilight 5:18 AM CDT 9:28 PM CDT
Astronomical Twilight 4:33 AM CDT 10:12 PM CDT
Moon 11:29 PM CDT (8/27) 2:09 PM CDT (8/27)
Length of Visible Light 14h 48m
Length of Day
13h 41m
Waning Gibbous, 57% of the Moon is Illuminated
Aug 27
Waning Gibbous
Aug 28
Last Quarter
Sep 5
New
Sep 12
First Quarter
Sep 19
Full

Hourly Weather History & Observations

Time (CDT) Temp. Heat Index Dew Point Humidity Pressure Visibility Wind Dir Wind Speed Gust Speed Precip Events Conditions
12:14 AM 68.0 °F - 62.6 °F 83% 29.87 in 10.0 mi Calm Calm - N/A   Unknown
12:34 AM 66.2 °F - 62.6 °F 88% 29.86 in 10.0 mi Calm Calm - N/A   Unknown
12:55 AM 68.0 °F - 62.6 °F 83% 29.86 in 10.0 mi Calm Calm - N/A   Unknown
1:14 AM 66.2 °F - 60.8 °F 83% 29.86 in 7.0 mi Calm Calm - N/A   Unknown
1:34 AM 64.4 °F - 60.8 °F 88% 29.86 in 7.0 mi Calm Calm - N/A   Unknown
1:55 AM 64.4 °F - 59.0 °F 83% 29.86 in 5.0 mi NE 3.5 mph - N/A   Haze
2:14 AM 64.4 °F - 59.0 °F 83% 29.86 in 5.0 mi Calm Calm - N/A   Haze
2:34 AM 64.4 °F - 59.0 °F 83% 29.86 in 5.0 mi Calm Calm - N/A   Haze
2:54 AM 64.4 °F - 60.8 °F 88% 29.87 in 7.0 mi Calm Calm - N/A   Unknown
3:14 AM 62.6 °F - 57.2 °F 82% 29.86 in 0.2 mi Calm Calm - N/A   Haze
3:34 AM 62.6 °F - 57.2 °F 82% 29.86 in 5.0 mi Calm Calm - N/A   Haze
3:54 AM 62.6 °F - 57.2 °F 82% 29.86 in 0.8 mi Calm Calm - N/A   Haze
4:14 AM 62.6 °F - 57.2 °F 82% 29.85 in 0.5 mi Calm Calm - N/A   Haze
4:34 AM 62.6 °F - 57.2 °F 82% 29.86 in 0.2 mi Calm Calm - N/A   Haze
4:54 AM 62.6 °F - 57.2 °F 82% 29.86 in 0.2 mi Calm Calm - N/A   Haze
5:14 AM 62.6 °F - 57.2 °F 82% 29.86 in 0.2 mi Calm Calm - N/A   Haze
5:34 AM 62.6 °F - 57.2 °F 82% 29.87 in 0.2 mi Calm Calm - N/A   Haze
5:54 AM 62.6 °F - 57.2 °F 82% 29.87 in 0.5 mi Calm Calm - N/A   Haze
6:14 AM 62.6 °F - 57.2 °F 82% 29.87 in 0.2 mi Calm Calm - N/A   Haze
6:34 AM 62.6 °F - 57.2 °F 82% 29.88 in 0.5 mi Calm Calm - N/A   Haze
6:54 AM 62.6 °F - 55.4 °F 77% 29.88 in 0.2 mi Calm Calm - N/A   Haze
7:14 AM 62.6 °F - 57.2 °F 82% 29.88 in 0.8 mi Calm Calm - N/A   Haze
7:34 AM 62.6 °F - 57.2 °F 82% 29.89 in 5.0 mi Calm Calm - N/A   Haze
7:54 AM 64.4 °F - 59.0 °F 83% 29.89 in 10.0 mi Calm Calm - N/A   Clear
8:14 AM 66.2 °F - 60.8 °F 83% 29.89 in 10.0 mi Calm Calm - N/A   Clear
8:34 AM 66.2 °F - 62.6 °F 88% 29.90 in 10.0 mi Calm Calm - N/A   Clear
8:54 AM 69.8 °F - 64.4 °F 83% 29.90 in 10.0 mi Calm Calm - N/A   Clear
9:14 AM 69.8 °F - 64.4 °F 83% 29.90 in 10.0 mi Calm Calm - N/A   Clear
9:34 AM 71.6 °F - 66.2 °F 83% 29.90 in 10.0 mi Calm Calm - N/A   Clear
9:54 AM 75.2 °F - 69.8 °F 83% 29.90 in 10.0 mi Calm Calm - N/A   Clear
10:14 AM 77.0 °F - 69.8 °F 78% 29.90 in 10.0 mi NNW 3.5 mph - N/A   Clear
10:34 AM 78.8 °F - 71.6 °F 78% 29.90 in 10.0 mi Calm Calm - N/A   Clear
10:54 AM 80.6 °F 84.6 °F 71.6 °F 74% 29.91 in 10.0 mi Calm Calm - N/A   Clear
11:14 AM 82.4 °F 87.2 °F 71.6 °F 70% 29.90 in 10.0 mi Calm Calm - N/A   Clear
11:34 AM 84.2 °F 89.6 °F 71.6 °F 66% 29.90 in 10.0 mi East 4.6 mph - N/A   Clear
11:54 AM 84.2 °F 88.4 °F 69.8 °F 62% 29.90 in 10.0 mi ESE 3.5 mph - N/A   Clear
12:14 PM 86.0 °F 89.4 °F 68.0 °F 55% 29.90 in 10.0 mi ESE 3.5 mph - N/A   Clear
12:34 PM 86.0 °F 90.4 °F 69.8 °F 58% 29.91 in 10.0 mi Calm Calm - N/A   Clear
12:54 PM 86.0 °F 90.4 °F 69.8 °F 58% 29.90 in 10.0 mi Calm Calm - N/A   Clear
1:14 PM 87.8 °F 92.6 °F 69.8 °F 55% 29.90 in 10.0 mi SSE 4.6 mph - N/A   Clear
1:34 PM 87.8 °F 90.4 °F 66.2 °F 49% 29.89 in 10.0 mi SE 3.5 mph - N/A   Clear
1:54 PM 87.8 °F 90.4 °F 66.2 °F 49% 29.89 in 10.0 mi South 4.6 mph - N/A   Clear
2:14 PM 87.8 °F 91.4 °F 68.0 °F 52% 29.88 in 10.0 mi Calm Calm - N/A   Clear
2:34 PM 87.8 °F 90.4 °F 66.2 °F 49% 29.88 in 10.0 mi WSW 4.6 mph - N/A   Clear
2:54 PM 89.6 °F 93.4 °F 68.0 °F 49% 29.89 in 10.0 mi SW 3.5 mph - N/A   Clear
3:14 PM 89.6 °F 92.2 °F 66.2 °F 46% 29.89 in 10.0 mi WSW 4.6 mph - N/A   Clear
3:34 PM 89.6 °F 90.1 °F 62.6 °F 40% 29.89 in 10.0 mi Calm Calm - N/A   Clear
3:54 PM 89.6 °F 90.1 °F 62.6 °F 40% 29.89 in 10.0 mi Calm Calm - N/A   Clear
4:14 PM 87.8 °F 89.4 °F 64.4 °F 46% 29.89 in 10.0 mi Calm Calm - N/A   Clear
4:34 PM 89.6 °F 91.1 °F 64.4 °F 43% 29.89 in 10.0 mi West 3.5 mph - N/A   Clear
4:54 PM 89.6 °F 91.1 °F 64.4 °F 43% 29.89 in 10.0 mi Calm Calm - N/A   Clear
5:14 PM 89.6 °F 92.2 °F 66.2 °F 46% 29.89 in 10.0 mi Calm Calm - N/A   Clear
5:34 PM 89.6 °F 92.2 °F 66.2 °F 46% 29.89 in 10.0 mi Calm Calm - N/A   Clear
5:54 PM 87.8 °F 91.4 °F 68.0 °F 52% 29.89 in 10.0 mi South 3.5 mph - N/A   Clear
6:14 PM 87.8 °F 91.4 °F 68.0 °F 52% 29.89 in 10.0 mi SSW 4.6 mph - N/A   Clear
6:35 PM 86.0 °F 90.4 °F 69.8 °F 58% 29.89 in 10.0 mi Calm Calm - N/A   Clear
6:54 PM 86.0 °F 91.8 °F 71.6 °F 62% 29.89 in 10.0 mi Calm Calm - N/A   Clear
7:14 PM 84.2 °F 89.6 °F 71.6 °F 66% 29.89 in 10.0 mi South 3.5 mph - N/A   Clear
7:34 PM 80.6 °F 85.4 °F 73.4 °F 79% 29.89 in 10.0 mi Calm Calm - N/A   Clear
7:54 PM 80.6 °F 84.6 °F 71.6 °F 74% 29.90 in 10.0 mi Calm Calm - N/A   Clear
8:14 PM 78.8 °F - 71.6 °F 78% 29.90 in 10.0 mi Calm Calm - N/A   Clear
8:34 PM 77.0 °F - 69.8 °F 78% 29.91 in 10.0 mi Calm Calm - N/A   Clear
8:54 PM 78.8 °F - 69.8 °F 74% 29.92 in 10.0 mi Calm Calm - N/A   Clear
9:14 PM 77.0 °F - 69.8 °F 78% 29.92 in 10.0 mi SE 4.6 mph - N/A   Clear
9:34 PM 75.2 °F - 69.8 °F 83% 29.92 in 10.0 mi SE 4.6 mph - N/A   Clear
9:54 PM 73.4 °F - 69.8 °F 88% 29.92 in 10.0 mi Calm Calm - N/A   Clear
10:14 PM 73.4 °F - 68.0 °F 83% 29.92 in 10.0 mi SSE 4.6 mph - N/A   Clear
10:34 PM 71.6 °F - 66.2 °F 83% 29.92 in 10.0 mi SSE 4.6 mph - N/A   Clear
10:54 PM 71.6 °F - 66.2 °F 83% 29.92 in 10.0 mi South 4.6 mph - N/A   Clear
11:14 PM 71.6 °F - 64.4 °F 78% 29.92 in 10.0 mi South 4.6 mph - N/A   Clear
11:34 PM 71.6 °F - 64.4 °F 78% 29.92 in 10.0 mi South 4.6 mph - N/A   Clear